AL, 04, 1902100300,   , BEST,   0, 140N,  938W,  30,     , TD, , , , , , , , , , , , , ,    UNNAMED
AL, 04, 1902100306,   , BEST,   0, 145N,  940W,  30,     , TD, , , , , , , , , , , , , ,    UNNAMED
AL, 04, 1902100312,   , BEST,   0, 150N,  942W,  30,     , TD, , , , , , , , , , , , , ,    UNNAMED
AL, 04, 1902100318,   , BEST,   0, 155N,  943W,  30,     , TD, , , , , , , , , , , , , ,    UNNAMED
AL, 04, 1902100400,   , BEST,   0, 160N,  944W,  30,     , TD, , , , , , , , , , , , , ,    UNNAMED
AL, 04, 1902100406,   , BEST,   0, 165N,  945W,  30,     , TD, , , , , , , , , , , , , ,    UNNAMED
AL, 04, 1902100412,   , BEST,   0, 170N,  946W,  30,     , TD, , , , , , , , , , , , , ,    UNNAMED
AL, 04, 1902100418,   , BEST,   0, 175N,  947W,  30,     , TD, , , , , , , , , , , , , ,    UNNAMED
AL, 04, 1902100500,   , BEST,   0, 180N,  948W,  30,     , TD, , , , , , , , , , , , , ,    UNNAMED
AL, 04, 1902100506,   , BEST,   0, 185N,  949W,  30,     , TD, , , , , , , , , , , , , ,    UNNAMED
AL, 04, 1902100512,   , BEST,   0, 187N,  949W,  35,     , TS, , , , , , , , , , , , , ,    UNNAMED
AL, 04, 1902100518,   , BEST,   0, 188N,  947W,  45,     , TS, , , , , , , , , , , , , ,    UNNAMED
AL, 04, 1902100600,   , BEST,   0, 189N,  944W,  55,     , TS, , , , , , , , , , , , , ,    UNNAMED
AL, 04, 1902100606,   , BEST,   0, 191N,  940W,  60,     , TS, , , , , , , , , , , , , ,    UNNAMED
AL, 04, 1902100612,   , BEST,   0, 193N,  937W,  65,     , HU, , , , , , , , , , , , , ,    UNNAMED
AL, 04, 1902100618,   , BEST,   0, 195N,  933W,  75,     , HU, , , , , , , , , , , , , ,    UNNAMED
AL, 04, 1902100700,   , BEST,   0, 197N,  929W,  85,     , HU, , , , , , , , , , , , , ,    UNNAMED
AL, 04, 1902100706,   , BEST,   0, 200N,  925W,  90,  970, HU, , , , , , , , , , , , , ,    UNNAMED
AL, 04, 1902100712,   , BEST,   0, 203N,  920W,  90,     , HU, , , , , , , , , , , , , ,    UNNAMED
AL, 04, 1902100718,   , BEST,   0, 207N,  915W,  90,     , HU, , , , , , , , , , , , , ,    UNNAMED
AL, 04, 1902100800,   , BEST,   0, 211N,  911W,  90,     , HU, , , , , , , , , , , , , ,    UNNAMED
AL, 04, 1902100806,   , BEST,   0, 215N,  908W,  90,     , HU, , , , , , , , , , , , , ,    UNNAMED
AL, 04, 1902100812,   , BEST,   0, 220N,  905W,  90,     , HU, , , , , , , , , , , , , ,    UNNAMED
AL, 04, 1902100818,   , BEST,   0, 227N,  902W,  90,     , HU, , , , , , , , , , , , , ,    UNNAMED
AL, 04, 1902100900,   , BEST,   0, 234N,  900W,  90,     , HU, , , , , , , , , , , , , ,    UNNAMED
AL, 04, 1902100906,   , BEST,   0, 239N,  899W,  85,     , HU, , , , , , , , , , , , , ,    UNNAMED
AL, 04, 1902100912,   , BEST,   0, 245N,  897W,  80,     , HU, , , , , , , , , , , , , ,    UNNAMED
AL, 04, 1902100918,   , BEST,   0, 253N,  895W,  70,     , HU, , , , , , , , , , , , , ,    UNNAMED
AL, 04, 1902101000,   , BEST,   0, 262N,  891W,  65,     , HU, , , , , , , , , , , , , ,    UNNAMED
AL, 04, 1902101006,   , BEST,   0, 271N,  888W,  60,     , TS, , , , , , , , , , , , , ,    UNNAMED
AL, 04, 1902101012,   , BEST,   0, 280N,  885W,  55,     , TS, , , , , , , , , , , , , ,    UNNAMED
AL, 04, 1902101018,   , BEST,   0, 294N,  878W,  50,     , TS, , , , , , , , , , , , , ,    UNNAMED
AL, 04, 1902101021,   , BEST,   0, 303N,  873W,  50,     , TS, , , , , , , , , , , , , ,    UNNAMED
AL, 04, 1902101100,   , BEST,   0, 310N,  869W,  40,     , TS, , , , , , , , , , , , , ,    UNNAMED
AL, 04, 1902101106,   , BEST,   0, 325N,  859W,  35,     , EX, , , , , , , , , , , , , ,    UNNAMED
AL, 04, 1902101112,   , BEST,   0, 337N,  848W,  35,     , EX, , , , , , , , , , , , , ,    UNNAMED
AL, 04, 1902101118,   , BEST,   0, 349N,  828W,  35,     , EX, , , , , , , , , , , , , ,    UNNAMED
AL, 04, 1902101200,   , BEST,   0, 364N,  805W,  35,     , EX, , , , , , , , , , , , , ,    UNNAMED
AL, 04, 1902101206,   , BEST,   0, 376N,  780W,  35,     , EX, , , , , , , , , , , , , ,    UNNAMED
AL, 04, 1902101212,   , BEST,   0, 388N,  728W,  35,     , EX, , , , , , , , , , , , , ,    UNNAMED
AL, 04, 1902101218,   , BEST,   0, 399N,  691W,  35,     , EX, , , , , , , , , , , , , ,    UNNAMED
AL, 04, 1902101300,   , BEST,   0, 409N,  655W,  35,     , EX, , , , , , , , , , , , , ,    UNNAMED
AL, 04, 1902101306,   , BEST,   0, 419N,  610W,  40,     , EX, , , , , , , , , , , , , ,    UNNAMED
AL, 04, 1902101312,   , BEST,   0, 428N,  551W,  40,     , EX, , , , , , , , , , , , , ,    UNNAMED
